Zurück zum Katalog

SL-12 R/B

AUX MOTOR

AktivHEO
NORAD 36116·ROCKET BODY·🇷🇺 Russia

Gestartet Dec 14, 2009 von Baikonur Cosmodrome

Loading…

Nächste Überflüge (nächste 24 Stunden)

TLE

AktuellSource: Space-Track

Epoche: Sep 13, 2026, 18:24 UTC

1 36116U 09070F   26256.76713507 -.00000043  00000-0 -47406-3 0  9993
2 36116  64.9782 174.2403 5574929 295.7503  17.8196  4.35655714104892

Verfolge SL-12 R/B in Echtzeit mit AllMySat

Download on the App Store